Estherville, IA

3:07 AM CST on February 21, 2017 (GMT -0600)
Estherville Municipal

Weather History for KEST - August, 2014

Change the Weather History Date:

Tuesday, August 26, 2014

  Actual Average Record
Temperature  
Mean Temperature 64 °F 68 °F  
Max Temperature 72 °F 79 °F 99 °F (1955)
Min Temperature 55 °F 57 °F 42 °F (2015)
Degree Days  
Heating Degree Days 1 1  
Month to date heating degree days 3 15  
Since 1 June heating degree days 61 65  
Since 1 July heating degree days 30 24  
Cooling Degree Days 0 4  
Month to date cooling degree days 120 132  
Year to date cooling degree days 396 524  
Since 1 June cooling degree days 347 488  
Growing Degree Days 13 (Base 50)    
Moisture  
Dew Point 55 °F    
Average Humidity 73    
Maximum Humidity 93    
Minimum Humidity 53    
Precipitation  
Precipitation 0.00 in 0.11 in 1.68 in (1986)
Month to date precipitation 0.93 3.30  
Sea Level Pressure  
Sea Level Pressure 30.17 in    
Wind  
Wind Speed 6 mph (North)    
Max Wind Speed 18 mph    
Max Gust Speed 22 mph    
Visibility 10 miles    
Events      
T = Trace of Precipitation, MM = Missing Value Source: NWS Daily Summary

Daily Weather History Graph

Daily Weather History Graph

Search for Another Location

Airport or City:

Trip Planner

Search our weather history database for the weather conditions in past years. The results will help you decide how hot, cold, wet, or windy it might be!

Date:

Astronomy

Aug. 26, 2014 Rise Set
Actual Time 6:36 AM CDT 8:04 PM CDT
Civil Twilight 6:06 AM CDT 8:34 PM CDT
Nautical Twilight 5:30 AM CDT 9:10 PM CDT
Astronomical Twilight 4:51 AM CDT 9:48 PM CDT
Moon 7:40 AM CDT (8/26) 8:22 PM CDT (8/26)
Length of Visible Light 14h 27m
Length of Day
13h 28m
New Moon, 1% of the Moon is Illuminated
Aug 26
New Moon
Sep 2
First Quarter
Sep 8
Full
Sep 15
Last Quarter
Sep 24
New

Hourly Weather History & Observations

Time (CDT) Temp. Dew Point Humidity Pressure Visibility Wind Dir Wind Speed Gust Speed Precip Events Conditions
12:52 AM 62.1 °F 59.0 °F 90% 30.09 in 10.0 mi NNW 6.9 mph - N/A   Overcast
1:52 AM 61.0 °F 57.0 °F 87% 30.07 in 10.0 mi North 11.5 mph - N/A   Mostly Cloudy
2:52 AM 60.1 °F 55.0 °F 83% 30.11 in 10.0 mi North 11.5 mph - N/A   Overcast
4:52 AM 55.9 °F 53.1 °F 90% 30.16 in 10.0 mi NNW 5.8 mph - N/A   Clear
5:52 AM 55.9 °F 53.1 °F 90% 30.19 in 10.0 mi NNW 3.5 mph - N/A   Overcast
6:52 AM 55.0 °F 53.1 °F 93% 30.24 in 10.0 mi Calm Calm - N/A   Clear
7:52 AM 55.9 °F 52.0 °F 87% 30.24 in 10.0 mi NNE 4.6 mph - N/A   Partly Cloudy
8:52 AM 57.0 °F 50.0 °F 77% 30.20 in 9.0 mi NNE 12.7 mph - N/A   Clear
10:52 AM 60.1 °F 50.0 °F 69% 30.16 in 10.0 mi North 15.0 mph - N/A   Clear
11:52 AM 63.0 °F 53.1 °F 70% 30.19 in 10.0 mi Variable 5.8 mph - N/A   Clear
12:52 PM 66.0 °F 53.1 °F 63% 30.21 in 7.0 mi Variable 3.5 mph - N/A   Clear
1:52 PM 66.9 °F 55.0 °F 66% 30.20 in 10.0 mi South 4.6 mph - N/A   Clear
2:52 PM 70.0 °F 55.0 °F 59% 30.18 in 10.0 mi Variable 3.5 mph - N/A   Clear
3:52 PM 71.1 °F 55.9 °F 59% 30.17 in 10.0 mi NNW 5.8 mph - N/A   Clear
4:52 PM 71.1 °F 54.0 °F 55% 30.16 in 10.0 mi North 6.9 mph - N/A   Clear
5:52 PM 71.1 °F 55.9 °F 59% 30.15 in 10.0 mi NE 4.6 mph - N/A   Clear
6:52 PM 70.0 °F 57.0 °F 63% 30.14 in 10.0 mi NE 8.1 mph - N/A   Clear
7:52 PM 64.9 °F 57.9 °F 78% 30.15 in 10.0 mi Calm Calm - N/A   Clear
8:52 PM 62.1 °F 57.9 °F 86% 30.16 in 10.0 mi North 3.5 mph - N/A   Clear
9:52 PM 61.0 °F 57.0 °F 87% 30.18 in 10.0 mi Calm Calm - N/A   Mostly Cloudy
10:52 PM 59.0 °F 55.9 °F 90% 30.18 in 10.0 mi North 3.5 mph - N/A   Clear
11:52 PM 57.9 °F 55.9 °F 93% 30.18 in 10.0 mi North 3.5 mph - N/A   Clear